CW5532 Weather Reports


time (UTC)temp
F
wind
direction
speed
knots
gust
knots
rain 1hr
in
rain 24hr
in
rain mn
in
humidity
%
barometer
mb
20260507210708 53 334 0.0 0.0 0.00 0.00 0.00 83 1012.7
20260507210208 53 333 0.0 0.0 0.00 0.00 0.00 82 1012.7
20260507203708 55 227 0.0 0.0 0.00 0.00 0.00 82 1012.6
20260507200708 56 227 0.0 0.0 0.00 0.00 0.00 80 1012.3
20260507193708 58 101 0.0 0.0 0.00 0.00 0.00 78 1011.9
20260507193208 58 101 0.0 0.0 0.00 0.00 0.00 78 1011.8
20260507190708 59 93 0.0 6.1 0.00 0.00 0.00 76 1011.4
20260507183708 60 117 0.9 5.2 0.00 0.00 0.00 73 1011.0
20260507183208 61 105 2.6 7.8 0.00 0.00 0.00 72 1010.9
20260507180208 63 128 0.0 6.1 0.00 0.00 0.00 69 1010.1
20260507173208 63 134 0.0 8.7 0.00 0.00 0.00 69 1010.1
20260507163708 64 114 6.1 12.2 0.00 0.00 0.00 65 1010.0
20260507160707 67 132 0.9 7.8 0.00 0.00 0.00 60 1009.5
20260507153708 68 195 0.0 6.1 0.00 0.00 0.00 60 1009.5
20260507150207 66 170 4.3 12.2 0.00 0.00 0.00 62 1009.8
20260507140207 66 137 4.3 13.0 0.00 0.00 0.00 65 1010.4
20260507133708 68 149 3.5 11.3 0.00 0.00 0.00 59 1010.3
20260507133207 69 113 4.3 10.4 0.00 0.00 0.00 55 1010.2
20260507130707 69 118 0.9 10.4 0.00 0.00 0.00 52 1010.5
20260507113707 68 118 1.7 10.4 0.00 0.00 0.00 55 1011.2
20260507110707 67 176 0.0 2.6 0.00 0.00 0.00 58 1011.7
20260507103706 66 117 1.7 5.2 0.00 0.00 0.00 62 1012.1
20260507103207 65 190 1.7 7.8 0.00 0.00 0.00 62 1012.2
20260507093207 64 122 0.9 5.2 0.00 0.00 0.00 66 1012.6
20260507090708 63 68 0.0 2.6 0.00 0.00 0.00 69 1012.4
20260507083707 62 93 1.7 4.3 0.00 0.00 0.00 71 1012.6
20260507080707 59 78 0.0 0.0 0.00 0.00 0.00 74 1012.9
20260507073207 58 117 0.0 0.0 0.00 0.00 0.00 75 1013.2
20260507063207 52 252 0.0 0.0 0.00 0.00 0.00 82 1012.8
20260507053206 45 229 0.0 0.0 0.00 0.00 0.00 85 1012.5
20260507050706 43 270 0.0 0.0 0.00 0.00 0.00 85 1012.5
20260507043706 43 227 0.0 0.0 0.00 0.00 0.00 85 1012.3
20260507040706 44 257 0.0 0.0 0.00 0.00 0.00 85 1012.4
20260507033707 44 264 0.0 0.0 0.00 0.00 0.00 85 1012.3
20260507023706 44 253 0.0 0.0 0.00 0.00 0.00 84 1012.2
20260507023206 44 256 0.0 0.0 0.00 0.00 0.00 84 1012.3
20260507020706 45 262 0.0 0.0 0.00 0.00 0.00 84 1012.2
20260507010206 46 263 0.0 0.0 0.00 0.00 0.00 84 1012.4
20260507000706 46 291 0.0 0.0 0.00 0.00 0.00 83 1012.8
20260506223706 49 291 0.0 0.0 0.00 0.01 0.00 82 1012.6
20260506223206 50 291 0.0 0.0 0.00 0.01 0.00 82 1012.5